Regional Weather Roundup
Issued by NWS Little Rock, AR

Home | Current Version | Previous Version | Text Only | Print | Product List | Glossary Off
Versions: 1 2 3 4 5 6 7 8 9 10 11 12 13 14 15 16 17 18 19 20 21 22 23 24 25 26 27 28 29 30 31

000
ASUS44 KLZK 210805
RWRLZK

WEATHER ROUNDUP FOR ARKANSAS
NATIONAL WEATHER SERVICE LITTLE ROCK AR
200 AM CST TUE FEB 21 2017

NOTE: "FAIR" INDICATES FEW OR NO CLOUDS BELOW 12,000 FEET WITH NO
SIGNIFICANT WEATHER AND/OR OBSTRUCTIONS TO VISIBILITY.

ARZ001-003-010-029-210900-
NORTHWEST ARKANSAS

CITY           SKY/WX    TMP DP  RH WIND       PRES   REMARKS
FAYETTEVILLE   CLOUDY    55  55 100 NE3       29.88F FOG
FORT SMITH     LGT RAIN  58  56  93 W3        29.89F FOG
HARRISON       LGT RAIN  56  56 100 N7        29.90F
BENTONVILLE    CLOUDY    55  54  94 CALM      29.93F
ROGERS         CLOUDY    55  54  96 CALM      29.93S
SILOAM SPGS    CLOUDY    54  48  82 N5        29.90F
HIGHFILL       CLOUDY    54  53  97 N7        29.90F
$$

ARZ004-005-016-210900-
NORTH CENTRAL ARKANSAS

CITY           SKY/WX    TMP DP  RH WIND       PRES   REMARKS
BATESVILLE     CLOUDY    61  59  94 SW3       29.88F
FLIPPIN        CLOUDY    57  54  88 NW5       29.89F
MTN HOME       LGT RAIN  57  56  96 CALM      29.91S
$$

ARZ040-041-210900-
WEST CENTRAL ARKANSAS

CITY           SKY/WX    TMP DP  RH WIND       PRES   REMARKS
MENA           CLOUDY    59  57  94 CALM      29.91S
MOUNT IDA      LGT RAIN  58  56  93 CALM      29.86R FOG
$$

ARZ009-017-025-026-028-210900-
NORTHEAST ARKANSAS

CITY           SKY/WX    TMP DP  RH WIND       PRES   REMARKS
CORNING        LGT RAIN  59  59 100 CALM      29.92S
JONESBORO      RAIN      60  58  92 N3        29.90R FOG
NEWPORT        LGT RAIN  61  60  97 MISG        N/A
WALNUT RIDGE   CLOUDY    59  54  82 N3        29.90R
BLYTHEVILLE    CLOUDY    66  50  56 SE9       29.89S
$$

ARZ022-023-033-042-044-210900-
CENTRAL ARKANSAS

CITY           SKY/WX    TMP DP  RH WIND       PRES   REMARKS
LITTLE ROCK    LGT RAIN  58  58 100 E6        29.86F
N LITTLE ROCK    N/A     58  57  95 N6        29.86F
JACKSONVILLE   LGT RAIN  59  59 100 NE5       29.86F
SEARCY         LGT RAIN  60  60 100 CALM      29.89S
HOT SPRINGS    CLOUDY    59  59 100 CALM      29.88F
RUSSELLVILLE   CLOUDY    59  58  96 NW3       29.85F
CLINTON        DRIZZLE   59  59 100 CALM      29.88F
$$

ARZ036-210900-
EAST ARKANSAS

CITY           SKY/WX    TMP DP  RH WIND       PRES   REMARKS
WEST MEMPHIS   LGT RAIN  64  56  75 S7        29.88S
$$

ARZ050-053-066-070-073-210900-
SOUTHWEST ARKANSAS

CITY           SKY/WX    TMP DP  RH WIND       PRES   REMARKS
ARKADELPHIA      N/A    N/A N/A N/A MISG        N/A
CAMDEN         CLOUDY    57  55  94 NW3       29.88F FOG
TEXARKANA      LGT RAIN  57  57 100 SW6       29.91F FOG
EL DORADO      CLOUDY    58  58 100 SW7       29.92S
DE QUEEN       LGT RAIN  56  56 100 W5        29.89S FOG
$$

ARZ056-057-069-210900-
SOUTHEAST ARKANSAS

CITY           SKY/WX    TMP DP  RH WIND       PRES   REMARKS
PINE BLUFF     LGT RAIN  59  58  96 NE7       29.86F
STUTTGART      CLOUDY    59  52  77 NW6       29.87F
MONTICELLO     LGT RAIN  59  57  93 NE7       29.85F

$$






USA.gov is the U.S. government's official web portal to all federal, state and local government web resources and services.